Wenatchee, WA
on Sunday, January 13, 2013

Sunday
Previous Day Next Day
Daily Summary
 ActualAverageRecord
Temperature
Mean Temperature °F 27°F  
Max Temperature 21°F 33°F 55°F (1991)
Min Temperature 9°F 22°F 2°F (1997)
Degree Days
Heating Degree Days 50 38  
Month to date heating degree days 541 503  
Since 1 July heating degree days 3204 3601  
Cooling Degree Days 0 0  
Month to date cooling degree days 0 0  
Year to date cooling degree days 0 0  
Moisture
Dew Point 11°F   
Average Humidity 75    
Maximum Humidity 81    
Minimum Humidity 65    
Precipitation
Precipitation T in 0.07 in 0.33 in (2011)
Month to date precipitation 0.87 0.91  
Year to date precipitation 0.87 0.91  
Snow
Snow T in 0.50 in in ()
Month to date snowfall 10.5 7.7  
Since 1 July snowfall 40.8 32.6  
Snow Depth 5.00 in   
Wind
Wind Speed 4 mph   
Max Wind Speed 13 mph   
Max Gust Speed mph   
Visibility 10 miles   
Events     

Key: T is trace of precipitation, MM is missing value
Source: NWS Daily Summary
Time(PST)TemperatureDew PointHumidity Pressure Visibility Wind DirectionWind SpeedGust SpeedPrecipitationEvents Conditions
12:55 AM 14.0°F 9.0°F 80% 30.42 in 10.0 miles NW 6.9 mph - N/A   Partly Cloudy
1:55 AM 15.1°F 9.0°F 77% 30.41 in 10.0 miles WSW 9.2 mph - N/A   Clear
2:55 AM 16.0°F 9.0°F 74% 30.43 in 10.0 miles WNW 12.7 mph - N/A   Partly Cloudy
3:55 AM 14.0°F 9.0°F 80% 30.43 in 10.0 miles NW 3.5 mph - N/A   Partly Cloudy
4:55 AM 14.0°F 9.0°F 80% 30.43 in 10.0 miles NNW 4.6 mph - N/A   Clear
5:55 AM 12.0°F 7.0°F 80% 30.45 in 10.0 miles West 5.8 mph - N/A   Clear
6:55 AM 14.0°F 8.1°F 77% 30.48 in 10.0 miles West 5.8 mph - N/A   Clear
7:55 AM 12.9°F 8.1°F 81% 30.50 in 10.0 miles WNW 4.6 mph - N/A   Clear
8:55 AM 12.9°F 8.1°F 81% 30.52 in 10.0 miles WNW 4.6 mph - N/A   Clear
9:55 AM 16.0°F 9.0°F 74% 30.52 in 10.0 miles Calm Calm - N/A   Clear
10:55 AM 17.1°F 10.0°F 74% 30.51 in 10.0 miles West 3.5 mph - N/A   Clear
11:55 AM 19.9°F 12.0°F 71% 30.49 in 10.0 miles Calm Calm - N/A   Clear
12:55 PM 21.9°F 12.9°F 68% 30.48 in 10.0 miles Calm Calm - N/A   Clear
1:55 PM 21.9°F 12.9°F 68% 30.47 in 10.0 miles Calm Calm - N/A   Clear
2:55 PM 23.0°F 12.9°F 65% 30.47 in 10.0 miles Calm Calm - N/A   Clear
3:55 PM 23.0°F 12.9°F 65% 30.46 in 10.0 miles Calm Calm - N/A   Mostly Cloudy
4:55 PM 21.0°F 12.0°F 68% 30.48 in 10.0 miles Calm Calm - N/A   Clear
5:55 PM 19.9°F 12.0°F 71% 30.49 in 10.0 miles Calm Calm - N/A   Scattered Clouds
6:55 PM 19.0°F 12.0°F 74% 30.47 in 10.0 miles Calm Calm - N/A   Clear
7:55 PM 19.9°F 12.9°F 74% 30.47 in 10.0 miles Calm Calm - N/A   Mostly Cloudy
8:55 PM 18.0°F 12.0°F 78% 30.48 in 10.0 miles Calm Calm - N/A   Mostly Cloudy
9:55 PM 19.9°F 14.0°F 78% 30.48 in 10.0 miles Calm Calm - N/A   Overcast
10:55 PM 19.9°F 14.0°F 78% 30.47 in 10.0 miles Calm Calm - N/A   Overcast
11:55 PM 19.9°F 14.0°F 78% 30.46 in 10.0 miles Calm Calm - N/A   Overcast
Moon Phase
Jan. 13 Jan. 18 Jan. 26 Feb. 03 Feb. 10
Sunrise:07:44 AM (PST) Moon Rise:08:34 AM (PST)1/13
Sunset:04:35 PM (PST) Moon Set:07:33 PM (PST)1/13

Copyright © 2014 The Weather Underground, Inc.